FW9097 Weather Reports


Display with metric or nautical units.
time (UTC)temp
F
wind
direction
speed
MPH
gust
MPH
rain 1hr
in
rain 24hr
in
rain mn
in
humidity
%
barometer
mb
20260505023049 62 248 2.0 9.0 0.00 0.00 0.00 72 1011.1
20260505021551 64 226 2.0 13.0 0.00 0.00 0.00 70 1011.0
20260505020053 65 0 2.0 8.0 0.00 0.00 0.00 68 1010.9
20260505014549 66 226 2.0 11.0 0.00 0.00 0.00 66 1010.8
20260505013047 67 325 2.0 14.0 0.00 0.00 0.00 64 1010.7
20260505011605 69 188 2.0 9.0 0.00 0.00 0.00 63 1010.8
20260505010055 70 238 1.0 11.0 0.00 0.00 0.00 61 1010.8
20260505004545 70 65 2.0 13.0 0.00 0.00 0.00 60 1010.7
20260505003053 71 0 3.0 13.0 0.00 0.00 0.00 58 1010.6
20260505001603 73 350 2.0 8.0 0.00 0.00 0.00 57 1010.6
20260505000105 74 109 2.0 8.0 0.00 0.00 0.00 56 1010.6
20260504234557 75 0 3.0 12.0 0.00 0.00 0.00 54 1010.6
20260504233102 75 297 2.0 12.0 0.00 0.00 0.00 54 1010.7
20260504231549 76 5 3.0 10.0 0.00 0.00 0.00 54 1010.7
20260504230047 75 325 3.0 10.0 0.00 0.00 0.00 54 1010.8
20260504224548 75 323 2.0 9.0 0.00 0.00 0.00 56 1010.9
20260504223051 75 302 1.0 12.0 0.00 0.00 0.00 58 1011.1
20260504221548 75 337 3.0 11.0 0.00 0.00 0.00 55 1011.2
20260504220048 76 0 1.0 10.0 0.00 0.00 0.00 55 1011.2
20260504214547 75 332 3.0 10.0 0.00 0.00 0.00 55 1011.3
20260504213052 74 320 2.0 10.0 0.00 0.00 0.00 58 1011.4
20260504211551 74 67 2.0 13.0 0.00 0.00 0.00 57 1011.8
20260504210049 74 296 3.0 8.0 0.00 0.00 0.00 60 1011.5
20260504204547 72 327 3.0 8.0 0.00 0.00 0.00 61 1011.6
20260504203049 72 241 3.0 8.0 0.00 0.00 0.00 62 1011.8
20260504201551 72 226 2.0 6.0 0.00 0.00 0.00 63 1011.7
20260504200049 70 51 0.0 5.0 0.00 0.00 0.00 66 1011.7
20260504194555 70 80 2.0 6.0 0.00 0.00 0.00 66 1011.8
20260504193046 70 341 1.0 6.0 0.00 0.00 0.00 66 1011.8
20260504191602 68 301 2.0 7.0 0.00 0.00 0.00 67 1012.2
20260504190051 68 39 2.0 7.0 0.00 0.00 0.00 68 1012.2
20260504184549 69 323 1.0 4.0 0.00 0.00 0.00 67 1012.2
20260504183047 68 0 1.0 5.0 0.00 0.00 0.00 70 1012.2
20260504181551 67 46 1.0 8.0 0.00 0.00 0.00 71 1012.3
20260504180048 68 283 1.0 5.0 0.00 0.00 0.00 70 1012.3
20260504174551 66 337 1.0 5.0 0.00 0.00 0.00 72 1012.2
20260504173049 65 265 0.0 5.0 0.00 0.00 0.00 74 1012.4
20260504171552 65 0 1.0 8.0 0.00 0.00 0.00 73 1012.3
20260504100400 51 0 0.0 0.0 0.00 0.00 0.00 86 1009.8
20260504090105 52 0 0.0 0.0 0.00 0.00 0.00 83 1010.0
20260504081555 53 0 0.0 0.0 0.00 0.00 0.00 81 1010.0
20260504044555 63 0 0.0 0.0 0.00 0.00 0.00 69 1009.8
20260504043051 63 0 0.0 0.0 0.00 0.00 0.00 68 1009.6
20260504041546 65 0 0.0 0.0 0.00 0.00 0.00 66 1009.5
20260504040109 67 0 0.0 0.0 0.00 0.00 0.00 62 1009.3
20260504034550 68 0 0.0 0.0 0.00 0.00 0.00 61 1009.3
20260504033047 70 0 0.0 0.0 0.00 0.00 0.00 60 1009.3
20260504031546 72 0 0.0 0.0 0.00 0.00 0.00 58 1009.3
20260504030048 74 0 0.0 0.0 0.00 0.00 0.00 54 1009.3
20260504024552 76 0 0.0 0.0 0.00 0.00 0.00 51 1009.4